Regional Weather Roundup
Issued by NWS

Home | Current Version | Previous Version | Graphics & Text | Print | Product List | Glossary On
Versions: 1 2 3 4 5 6 7 8 9 10 11 12 13 14 15 16 17 18 19 20 21 22 23 24 25 26 27 28 29 30 31 32 33 34 35 36 37 38 39 40 41 42 43 44 45 46 47 48 49 50
000
ASUS45 KABQ 210510
RWRNM
WEATHER ROUNDUP FOR NEW MEXICO
NATIONAL WEATHER SERVICE ALBUQUERQUE NM
1100 PM MDT SAT SEP 20 2014

NOTE: "FAIR" MEANS FEW OR NO CLOUDS BELOW 12,000 FEET AGL WITH NO
       SIGNIFICANT WEATHER OR OBSTRUCTIONS TO VISION.

      THIS PRODUCT IS RELEASED AS TWO VERSIONS.  ONE VERSION NEAR
      THE TOP OF THE HOUR CONTAINING PRELIMINARY DATA FROM ALBUQUERQUE
      AND OTHER STATIONS.  A FINAL VERSION WITH ADDITIONAL DATA IS
      ISSUED ABOUT 10 MINUTES AFTER THE HOUR.

NMZ501-503-504-510>518-210600-
NORTHWEST PLATEAU/NORTHCENTRAL MOUNTAINS

CITY           SKY/WX    TMP DP  RH WIND       PRES   REMARKS
FARMINGTON     CLOUDY    78  41  26 SE10      30.14R
LOS ALAMOS     CLEAR     66  50  55 S12       30.35S
SANTA FE       MOCLDY    69  51  52 SE9       30.29R
TAOS           PTCLDY    66  45  45 SE15G21   30.35S
ANGEL FIRE     MOCLDY    56  45  66 CALM      30.48S

$$
NMZ402-403-502-505>509-210600-
WESTCENTRAL MOUNTAINS/SOUTHWEST MOUNTAINS

CITY           SKY/WX    TMP DP  RH WIND       PRES   REMARKS
GALLUP         PTCLDY    71  45  39 S10       30.25R
GRANTS         CLEAR     59  45  58 SE8       30.29R
SILVER CITY    CLEAR     68  63  83 N8        30.19S

$$
NMZ407-409-411-412-210600-
SOUTHERN DESERTS

CITY           SKY/WX    TMP DP  RH WIND       PRES   REMARKS
LORDSBURG      FAIR      72  64  78 MISG      30.08S
DEMING         PTCLDY    73  65  75 NE6       30.09R
LAS CRUCES     CLEAR     74  62  65 SE8       30.12S
HOLLOMAN AFB   PTCLDY    70  62  74 CALM      30.09R
ALAMOGORDO     PTCLDY    72  57  60 E7        30.11S
T OR C         CLOUDY    74  62  66 CALM      30.14R

$$
NMZ519>523-210600-
CENTRAL VALLEYS/CENTRAL HIGHLANDS

CITY           SKY/WX    TMP DP  RH WIND       PRES   REMARKS
ALBUQUERQUE    MOCLDY    73  52  47 SE5       30.21R
DOUBLE EAGLE   PTCLDY    68  51  54 SE10      30.25S
MORIARTY ARPT  FAIR      59  54  82 E7        30.32R
CLINES CORNERS PTCLDY    58  53  84 SE8       30.35R
BELEN          FAIR      72  55  54 SE13      30.20R
SOCORRO        FAIR      71  58  62 W5        30.17S

$$
NMZ524>526-539-540-210600-
SOUTHCENTRAL MOUNTAINS

CITY           SKY/WX    TMP DP  RH WIND       PRES   REMARKS
RUIDOSO        CLEAR     61  55  82 CALM      30.35R

$$
NMZ527>531-210600-
NORTHEAST HIGHLANDS/NORTHEAST PLAINS

CITY           SKY/WX    TMP DP  RH WIND       PRES   REMARKS
LAS VEGAS      PTCLDY    58  48  69 N3        30.37R
RATON          PTCLDY    61  43  51 N6        30.33R
CLAYTON        CLEAR     66  58  75 SW6       30.25R

$$
NMZ532>537-210600-
EASTCENTRAL PLAINS

CITY           SKY/WX    TMP DP  RH WIND       PRES   REMARKS
TUCUMCARI      CLEAR     68  61  78 S7        30.18R
CANNON AFB     CLOUDY    68 N/A N/A SE6       30.21R
CLOVIS AIRPORT   N/A     66  64  94 SE7       30.23R

$$
NMZ028-029-538-210600-
SOUTHEAST PLAINS

CITY           SKY/WX    TMP DP  RH WIND       PRES   REMARKS
ROSWELL        CLOUDY    73  67  81 E8        30.13R
CARLSBAD       CLOUDY    75  75 100 E10       30.09R
HOBBS          CLOUDY    68  68 100 E9        30.14R FOG


$$



USA.gov is the U.S. government's official web portal to all federal, state and local government web resources and services.